Location: D�pe
(52.6057°N, 8.1808°E)
Time: 00:54:24
(UTC+00:00)

ATLAS 5 CENTAUR R/B - Pass Details

Date: 29 October 2020
Orbit: 531 x 1127 km, 63.4° (Epoch: 22 November)

Event Time Altitude Azimuth Distance (km) Brightness Sun altitude
Rises 19:54:24 0° 309° (NW) 3,061 6.1 -35.1°
Reaches altitude 10° 19:56:45 10° 318° (NW) 2,229 5.1 -35.4°
Enters shadow 19:59:01 24° 336° (NNW) 1,553 3.9 -35.8°
